Location: Unspecified
(40.7945°N, 111.1337°W)
Time: 01:12:14
(UTC-06:00)

Vanguard 1 - Pass Details

Date: 02 July 2019
Orbit: 653 x 3830 km, 34.3° (Epoch: 20 July)

Event Time Altitude Azimuth Distance (km) Brightness Sun altitude
Rises 05:02:43 0° 273° (W) 7,824 14.2 -9.1°
Reaches altitude 10° 05:08:31 10° 271° (W) 6,559 13.8 -8.3°
Maximum altitude 05:27:41 62° 197° (SSW) 2,657 12.0 -5.5°
Drops below altitude 10° 05:38:17 10° 120° (ESE) 3,854 13.5 -3.8°
Sets 05:40:46 0° 116° (ESE) 4,532 13.9 -3.4°
